Year,Month,Day,Hour,Minute,Value (Times are PST for temperature in C)
2020,04,13,00,00,7.70
2020,04,13,00,01,7.70
2020,04,13,00,02,7.70
2020,04,13,00,03,7.80
2020,04,13,00,04,7.80
2020,04,13,00,05,7.90
2020,04,13,00,06,7.90
2020,04,13,00,07,8.00
2020,04,13,00,08,8.00
2020,04,13,00,09,8.10
2020,04,13,00,10,8.10
2020,04,13,00,11,8.20
2020,04,13,00,12,8.20
2020,04,13,00,13,8.30
2020,04,13,00,14,8.30
2020,04,13,00,15,8.40
2020,04,13,00,16,8.40
2020,04,13,00,17,8.40
2020,04,13,00,18,8.40
2020,04,13,00,19,8.40
2020,04,13,00,20,8.40
2020,04,13,00,21,8.30
2020,04,13,00,22,8.30
2020,04,13,00,23,8.30
2020,04,13,00,24,8.30
2020,04,13,00,25,8.30
2020,04,13,00,26,8.30
2020,04,13,00,27,8.30
2020,04,13,00,28,8.20
2020,04,13,00,29,8.20
2020,04,13,00,30,8.20
2020,04,13,00,31,8.20
2020,04,13,00,32,8.10
2020,04,13,00,33,8.10
2020,04,13,00,34,8.10
2020,04,13,00,35,8.10
2020,04,13,00,36,8.00
2020,04,13,00,37,8.00
2020,04,13,00,38,7.90
2020,04,13,00,39,7.90
2020,04,13,00,40,7.90
2020,04,13,00,41,7.80
2020,04,13,00,42,7.80
2020,04,13,00,43,7.80
2020,04,13,00,44,7.80
2020,04,13,00,45,7.80
2020,04,13,00,46,7.80
2020,04,13,00,47,7.80
2020,04,13,00,48,7.80
2020,04,13,00,49,7.80
2020,04,13,00,50,7.80
2020,04,13,00,51,7.70
2020,04,13,00,52,7.70
2020,04,13,00,53,7.70
2020,04,13,00,54,7.60
2020,04,13,00,55,7.60
2020,04,13,00,56,7.60
2020,04,13,00,57,7.50
2020,04,13,00,58,7.50
2020,04,13,00,59,7.40
2020,04,13,01,00,7.40
2020,04,13,01,01,7.30
2020,04,13,01,02,7.30
2020,04,13,01,03,7.30
2020,04,13,01,04,7.30
2020,04,13,01,05,7.20
2020,04,13,01,06,7.20
2020,04,13,01,07,7.20
2020,04,13,01,08,7.20
2020,04,13,01,09,7.10
2020,04,13,01,10,7.10
2020,04,13,01,11,7.10
2020,04,13,01,12,7.10
2020,04,13,01,13,7.00
2020,04,13,01,14,7.00
2020,04,13,01,15,6.90
2020,04,13,01,16,6.90
2020,04,13,01,17,6.90
2020,04,13,01,18,6.90
2020,04,13,01,19,6.90
2020,04,13,01,20,6.90
2020,04,13,01,21,6.90
2020,04,13,01,22,6.90
2020,04,13,01,23,6.90
2020,04,13,01,24,6.90
2020,04,13,01,25,6.90
2020,04,13,01,26,6.80
2020,04,13,01,27,6.80
2020,04,13,01,28,6.80
2020,04,13,01,29,6.80
2020,04,13,01,30,6.80
2020,04,13,01,31,6.80
2020,04,13,01,32,6.70
2020,04,13,01,33,6.70
2020,04,13,01,34,6.70
2020,04,13,01,35,6.70
2020,04,13,01,36,6.80
2020,04,13,01,37,6.80
2020,04,13,01,38,6.80
2020,04,13,01,39,6.90
2020,04,13,01,40,6.90
2020,04,13,01,41,7.00
2020,04,13,01,42,7.00
2020,04,13,01,43,7.10
2020,04,13,01,44,7.10
2020,04,13,01,45,7.10
2020,04,13,01,46,7.10
2020,04,13,01,47,7.10
2020,04,13,01,48,7.10
2020,04,13,01,49,7.00
2020,04,13,01,50,7.00
2020,04,13,01,51,6.90
2020,04,13,01,52,6.90
2020,04,13,01,53,6.90
2020,04,13,01,54,6.80
2020,04,13,01,55,6.80
2020,04,13,01,56,6.80
2020,04,13,01,57,6.80
2020,04,13,01,58,6.80
2020,04,13,01,59,6.70
2020,04,13,02,00,6.70
2020,04,13,02,01,6.70
2020,04,13,02,02,6.70
2020,04,13,02,03,6.70
2020,04,13,02,04,6.70
2020,04,13,02,05,6.70
2020,04,13,02,06,6.70
2020,04,13,02,07,6.70
2020,04,13,02,08,6.70
2020,04,13,02,09,6.70
2020,04,13,02,10,6.60
2020,04,13,02,11,6.60
2020,04,13,02,12,6.50
2020,04,13,02,13,6.40
2020,04,13,02,14,6.40
2020,04,13,02,15,6.40
2020,04,13,02,16,6.40
2020,04,13,02,17,6.20
2020,04,13,02,18,5.90
2020,04,13,02,19,5.80
2020,04,13,02,20,5.80
2020,04,13,02,21,5.80
2020,04,13,02,22,5.80
2020,04,13,02,23,5.70
2020,04,13,02,24,5.60
2020,04,13,02,25,5.60
2020,04,13,02,26,5.60
2020,04,13,02,27,5.60
2020,04,13,02,28,5.60
2020,04,13,02,29,5.60
2020,04,13,02,30,5.60
2020,04,13,02,31,5.60
2020,04,13,02,32,5.60
2020,04,13,02,33,5.60
2020,04,13,02,34,5.60
2020,04,13,02,35,5.60
2020,04,13,02,36,5.60
2020,04,13,02,37,5.60
2020,04,13,02,38,5.60
2020,04,13,02,39,5.60
2020,04,13,02,40,5.60
2020,04,13,02,41,5.50
2020,04,13,02,42,5.50
2020,04,13,02,43,5.50
2020,04,13,02,44,5.60
2020,04,13,02,45,5.60
2020,04,13,02,46,5.60
2020,04,13,02,47,5.60
2020,04,13,02,48,5.60
2020,04,13,02,49,5.60
2020,04,13,02,50,5.60
2020,04,13,02,51,5.60
2020,04,13,02,52,5.60
2020,04,13,02,53,5.50
2020,04,13,02,54,5.50
2020,04,13,02,55,5.40
2020,04,13,02,56,5.40
2020,04,13,02,57,5.40
2020,04,13,02,58,5.40
2020,04,13,02,59,5.50
2020,04,13,03,00,5.50
2020,04,13,03,01,5.60
2020,04,13,03,02,5.60
2020,04,13,03,03,5.60
2020,04,13,03,04,5.50
2020,04,13,03,05,5.40
2020,04,13,03,06,5.40
2020,04,13,03,07,5.40
2020,04,13,03,08,5.40
2020,04,13,03,09,5.40
2020,04,13,03,10,5.40
2020,04,13,03,11,5.40
2020,04,13,03,12,5.40
2020,04,13,03,13,5.40
2020,04,13,03,14,5.40
2020,04,13,03,15,5.40
2020,04,13,03,16,5.40
2020,04,13,03,17,5.30
2020,04,13,03,18,5.30
2020,04,13,03,19,5.30
2020,04,13,03,20,5.30
2020,04,13,03,21,5.30
2020,04,13,03,22,5.30
2020,04,13,03,23,5.30
2020,04,13,03,24,5.30
2020,04,13,03,25,5.30
2020,04,13,03,26,5.30
2020,04,13,03,27,5.30
2020,04,13,03,28,5.40
2020,04,13,03,29,5.40
2020,04,13,03,30,5.40
2020,04,13,03,31,5.30
2020,04,13,03,32,5.20
2020,04,13,03,33,5.10
2020,04,13,03,34,5.10
2020,04,13,03,35,5.10
2020,04,13,03,36,5.00
2020,04,13,03,37,5.10
2020,04,13,03,38,5.10
2020,04,13,03,39,5.10
2020,04,13,03,40,5.10
2020,04,13,03,41,5.10
2020,04,13,03,42,5.10
2020,04,13,03,43,5.10
2020,04,13,03,44,5.20
2020,04,13,03,45,5.20
2020,04,13,03,46,5.20
2020,04,13,03,47,5.20
2020,04,13,03,48,5.10
2020,04,13,03,49,5.20
2020,04,13,03,50,5.20
2020,04,13,03,51,5.20
2020,04,13,03,52,5.20
2020,04,13,03,53,5.20
2020,04,13,03,54,5.20
2020,04,13,03,55,5.20
2020,04,13,03,56,5.20
2020,04,13,03,57,5.10
2020,04,13,03,58,5.10
2020,04,13,03,59,5.20
2020,04,13,04,00,5.20
2020,04,13,04,01,5.20
2020,04,13,04,02,5.20
2020,04,13,04,03,5.20
2020,04,13,04,04,5.20
2020,04,13,04,05,5.20
2020,04,13,04,06,5.20
2020,04,13,04,07,5.30
2020,04,13,04,08,5.30
2020,04,13,04,09,5.30
2020,04,13,04,10,5.30
2020,04,13,04,11,5.30
2020,04,13,04,12,5.30
2020,04,13,04,13,5.30
2020,04,13,04,14,5.30
2020,04,13,04,15,5.30
2020,04,13,04,16,5.30
2020,04,13,04,17,5.30
2020,04,13,04,18,5.30
2020,04,13,04,19,5.30
2020,04,13,04,20,5.30
2020,04,13,04,21,5.30
2020,04,13,04,22,5.30
2020,04,13,04,23,5.30
2020,04,13,04,24,5.20
2020,04,13,04,25,5.20
2020,04,13,04,26,5.30
2020,04,13,04,27,5.30
2020,04,13,04,28,5.30
2020,04,13,04,29,5.30
2020,04,13,04,30,5.30
2020,04,13,04,31,5.30
2020,04,13,04,32,5.30
2020,04,13,04,33,5.30
2020,04,13,04,34,5.20
2020,04,13,04,35,5.20
2020,04,13,04,36,5.20
2020,04,13,04,37,5.20
2020,04,13,04,38,5.20
2020,04,13,04,39,5.20
2020,04,13,04,40,5.20
2020,04,13,04,41,5.20
2020,04,13,04,42,5.20
2020,04,13,04,43,5.20
2020,04,13,04,44,5.20
2020,04,13,04,45,5.20
2020,04,13,04,46,5.20
2020,04,13,04,47,5.20
2020,04,13,04,48,5.20
2020,04,13,04,49,5.20
2020,04,13,04,50,5.20
2020,04,13,04,51,5.20
2020,04,13,04,52,5.20
2020,04,13,04,53,5.20
2020,04,13,04,54,5.20
2020,04,13,04,55,5.20
2020,04,13,04,56,5.20
2020,04,13,04,57,5.10
2020,04,13,04,58,5.10
2020,04,13,04,59,5.10
2020,04,13,05,00,5.10
2020,04,13,05,01,5.10
2020,04,13,05,02,5.10
2020,04,13,05,03,5.10
2020,04,13,05,04,5.10
2020,04,13,05,05,5.10
2020,04,13,05,06,5.10
2020,04,13,05,07,5.20
2020,04,13,05,08,5.20
2020,04,13,05,09,5.20
2020,04,13,05,10,5.20
2020,04,13,05,11,5.20
2020,04,13,05,12,5.30
2020,04,13,05,13,5.20
2020,04,13,05,14,5.20
2020,04,13,05,15,5.20
2020,04,13,05,16,5.20
2020,04,13,05,17,5.20
2020,04,13,05,18,5.20
2020,04,13,05,19,5.20
2020,04,13,05,20,5.20
2020,04,13,05,21,5.10
2020,04,13,05,22,5.10
2020,04,13,05,23,5.10
2020,04,13,05,24,5.10
2020,04,13,05,25,5.10
2020,04,13,05,26,5.10
2020,04,13,05,27,5.10
2020,04,13,05,28,5.10
2020,04,13,05,29,5.10
2020,04,13,05,30,5.10
2020,04,13,05,31,5.10
2020,04,13,05,32,5.10
2020,04,13,05,33,5.10
2020,04,13,05,34,5.00
2020,04,13,05,35,5.00
2020,04,13,05,36,5.00
2020,04,13,05,37,5.00
2020,04,13,05,38,4.90
2020,04,13,05,39,4.90
2020,04,13,05,40,4.90
2020,04,13,05,41,4.90
2020,04,13,05,42,4.90
2020,04,13,05,43,4.90
2020,04,13,05,44,4.90
2020,04,13,05,45,4.90
2020,04,13,05,46,4.90
2020,04,13,05,47,4.90
2020,04,13,05,48,4.90
2020,04,13,05,49,4.90
2020,04,13,05,50,4.90
2020,04,13,05,51,4.90
2020,04,13,05,52,4.90
2020,04,13,05,53,4.90
2020,04,13,05,54,5.00
2020,04,13,05,55,5.00
2020,04,13,05,56,5.00
2020,04,13,05,57,5.00
2020,04,13,05,58,5.00
2020,04,13,05,59,5.00
2020,04,13,06,00,5.00
2020,04,13,06,01,5.00
2020,04,13,06,02,5.00
2020,04,13,06,03,5.00
2020,04,13,06,04,5.00
2020,04,13,06,05,5.00
2020,04,13,06,06,4.90
2020,04,13,06,07,4.90
2020,04,13,06,08,4.90
2020,04,13,06,09,4.90
2020,04,13,06,10,4.90
2020,04,13,06,11,4.90
2020,04,13,06,12,4.90
2020,04,13,06,13,4.90
2020,04,13,06,14,4.90
2020,04,13,06,15,4.90
2020,04,13,06,16,4.90
2020,04,13,06,17,4.90
2020,04,13,06,18,4.90
2020,04,13,06,19,4.90
2020,04,13,06,20,4.90
2020,04,13,06,21,4.90
2020,04,13,06,22,4.90
2020,04,13,06,23,4.90
2020,04,13,06,24,4.90
2020,04,13,06,25,4.90
2020,04,13,06,26,4.90
2020,04,13,06,27,4.90
2020,04,13,06,28,4.90
2020,04,13,06,29,4.90
2020,04,13,06,30,4.90
2020,04,13,06,31,4.90
2020,04,13,06,32,4.90
2020,04,13,06,33,4.80
2020,04,13,06,34,4.80
2020,04,13,06,35,4.80
2020,04,13,06,36,4.80
2020,04,13,06,37,4.80
2020,04,13,06,38,4.80
2020,04,13,06,39,4.80
2020,04,13,06,40,4.80
2020,04,13,06,41,4.80
2020,04,13,06,42,4.70
2020,04,13,06,43,4.70
2020,04,13,06,44,4.70
2020,04,13,06,45,4.80
2020,04,13,06,46,4.70
2020,04,13,06,47,4.70
2020,04,13,06,48,4.80
2020,04,13,06,49,4.80
2020,04,13,06,50,4.80
2020,04,13,06,51,4.80
2020,04,13,06,52,4.80
2020,04,13,06,53,4.80
2020,04,13,06,54,4.80
2020,04,13,06,55,4.70
2020,04,13,06,56,4.70
2020,04,13,06,57,4.70
2020,04,13,06,58,4.70
2020,04,13,06,59,4.70
2020,04,13,07,00,4.70
2020,04,13,07,01,4.70
2020,04,13,07,02,4.70
2020,04,13,07,03,4.70
2020,04,13,07,04,4.70
2020,04,13,07,05,4.70
2020,04,13,07,06,4.70
2020,04,13,07,07,4.70
2020,04,13,07,08,4.70
2020,04,13,07,09,4.70
2020,04,13,07,10,4.70
2020,04,13,07,11,4.70
2020,04,13,07,12,4.70
2020,04,13,07,13,4.70
2020,04,13,07,14,4.70
2020,04,13,07,15,4.70
2020,04,13,07,16,4.70
2020,04,13,07,17,4.70
2020,04,13,07,18,4.70
2020,04,13,07,19,4.70
2020,04,13,07,20,4.70
2020,04,13,07,21,4.70
2020,04,13,07,22,4.70
2020,04,13,07,23,4.70
2020,04,13,07,24,4.70
2020,04,13,07,25,4.70
2020,04,13,07,26,4.70
2020,04,13,07,27,4.70
2020,04,13,07,28,4.70
2020,04,13,07,29,4.70
2020,04,13,07,30,4.70
2020,04,13,07,31,4.80
2020,04,13,07,32,4.80
2020,04,13,07,33,4.80
2020,04,13,07,34,4.80
2020,04,13,07,35,4.90
2020,04,13,07,36,4.90
2020,04,13,07,37,5.00
2020,04,13,07,38,5.10
2020,04,13,07,39,5.10
2020,04,13,07,40,5.20
2020,04,13,07,41,5.20
2020,04,13,07,42,5.30
2020,04,13,07,43,5.30
2020,04,13,07,44,5.40
2020,04,13,07,45,5.50
2020,04,13,07,46,5.60
2020,04,13,07,47,5.70
2020,04,13,07,48,5.70
2020,04,13,07,49,5.80
2020,04,13,07,50,5.90
2020,04,13,07,51,6.00
2020,04,13,07,52,6.20
2020,04,13,07,53,6.30
2020,04,13,07,54,6.40
2020,04,13,07,55,6.50
2020,04,13,07,56,6.60
2020,04,13,07,57,6.60
2020,04,13,07,58,6.70
2020,04,13,07,59,6.80
2020,04,13,08,00,6.90
2020,04,13,08,01,7.00
2020,04,13,08,02,7.10
2020,04,13,08,03,7.20
2020,04,13,08,04,7.20
2020,04,13,08,05,7.30
2020,04,13,08,06,7.40
2020,04,13,08,07,7.50
2020,04,13,08,08,7.60
2020,04,13,08,09,7.70
2020,04,13,08,10,7.80
2020,04,13,08,11,7.80
2020,04,13,08,12,7.90
2020,04,13,08,13,8.00
2020,04,13,08,14,8.10
2020,04,13,08,15,8.20
2020,04,13,08,16,8.20
2020,04,13,08,17,8.30
2020,04,13,08,18,8.40
2020,04,13,08,19,8.50
2020,04,13,08,20,8.50
2020,04,13,08,21,8.60
2020,04,13,08,22,8.70
2020,04,13,08,23,8.70
2020,04,13,08,24,8.80
2020,04,13,08,25,8.80
2020,04,13,08,26,8.90
2020,04,13,08,27,8.90
2020,04,13,08,28,9.00
2020,04,13,08,29,9.00
2020,04,13,08,30,9.10
2020,04,13,08,31,9.10
2020,04,13,08,32,9.20
2020,04,13,08,33,9.20
2020,04,13,08,34,9.20
2020,04,13,08,35,9.30
2020,04,13,08,36,9.30
2020,04,13,08,37,9.30
2020,04,13,08,38,9.30
2020,04,13,08,39,9.30
2020,04,13,08,40,9.40
2020,04,13,08,41,9.40
2020,04,13,08,42,9.50
2020,04,13,08,43,9.50
2020,04,13,08,44,9.50
2020,04,13,08,45,9.40
2020,04,13,08,46,9.50
2020,04,13,08,47,9.50
2020,04,13,08,48,9.50
2020,04,13,08,49,9.60
2020,04,13,08,50,9.60
2020,04,13,08,51,9.70
2020,04,13,08,52,9.80
2020,04,13,08,53,9.80
2020,04,13,08,54,9.90
2020,04,13,08,55,10.00
2020,04,13,08,56,10.10
2020,04,13,08,57,10.10
2020,04,13,08,58,10.20
2020,04,13,08,59,10.20
2020,04,13,09,00,10.20
2020,04,13,09,01,10.20
2020,04,13,09,02,10.10
2020,04,13,09,03,10.10
2020,04,13,09,04,10.10
2020,04,13,09,05,10.10
2020,04,13,09,06,10.10
2020,04,13,09,07,10.10
2020,04,13,09,08,10.10
2020,04,13,09,09,10.10
2020,04,13,09,10,10.00
2020,04,13,09,11,10.10
2020,04,13,09,12,10.10
2020,04,13,09,13,10.10
2020,04,13,09,14,10.10
2020,04,13,09,15,10.10
2020,04,13,09,16,10.20
2020,04,13,09,17,10.20
2020,04,13,09,18,10.20
2020,04,13,09,19,10.30
2020,04,13,09,20,10.40
2020,04,13,09,21,10.50
2020,04,13,09,22,10.60
2020,04,13,09,23,10.70
2020,04,13,09,24,10.70
2020,04,13,09,25,10.80
2020,04,13,09,26,10.80
2020,04,13,09,27,10.80
2020,04,13,09,28,10.80
2020,04,13,09,29,10.80
2020,04,13,09,30,10.80
2020,04,13,09,31,10.80
2020,04,13,09,32,10.80
2020,04,13,09,33,10.90
2020,04,13,09,34,10.90
2020,04,13,09,35,10.90
2020,04,13,09,36,11.00
2020,04,13,09,37,11.00
2020,04,13,09,38,11.10
2020,04,13,09,39,11.10
2020,04,13,09,40,11.10
2020,04,13,09,41,11.20
2020,04,13,09,42,11.20
2020,04,13,09,43,11.20
2020,04,13,09,44,11.20
2020,04,13,09,45,11.20
2020,04,13,09,46,11.20
2020,04,13,09,47,11.20
2020,04,13,09,48,11.20
2020,04,13,09,49,11.20
2020,04,13,09,50,11.20
2020,04,13,09,51,11.20
2020,04,13,09,52,11.10
2020,04,13,09,53,11.10
2020,04,13,09,54,11.10
2020,04,13,09,55,11.10
2020,04,13,09,56,11.20
2020,04,13,09,57,11.20
2020,04,13,09,58,11.20
2020,04,13,09,59,11.20
2020,04,13,10,00,11.20
2020,04,13,10,01,11.20
2020,04,13,10,02,11.30
2020,04,13,10,03,11.30
2020,04,13,10,04,11.30
2020,04,13,10,05,11.40
2020,04,13,10,06,11.50
2020,04,13,10,07,11.50
2020,04,13,10,08,11.60
2020,04,13,10,09,11.60
2020,04,13,10,10,11.70
2020,04,13,10,11,11.70
2020,04,13,10,12,11.70
2020,04,13,10,13,11.70
2020,04,13,10,14,11.70
2020,04,13,10,15,11.70
2020,04,13,10,16,11.70
2020,04,13,10,17,11.80
2020,04,13,10,18,11.80
2020,04,13,10,19,11.80
2020,04,13,10,20,11.80
2020,04,13,10,21,11.70
2020,04,13,10,22,11.70
2020,04,13,10,23,11.60
2020,04,13,10,24,11.60
2020,04,13,10,25,11.60
2020,04,13,10,26,11.60
2020,04,13,10,27,11.60
2020,04,13,10,28,11.50
2020,04,13,10,29,11.40
2020,04,13,10,30,11.20
2020,04,13,10,31,11.10
2020,04,13,10,32,11.00
2020,04,13,10,33,10.90
2020,04,13,10,34,10.80
2020,04,13,10,35,10.80
2020,04,13,10,36,10.80
2020,04,13,10,37,10.80
2020,04,13,10,38,10.80
2020,04,13,10,39,10.80
2020,04,13,10,40,10.90
2020,04,13,10,41,10.90
2020,04,13,10,42,11.00
2020,04,13,10,43,11.10
2020,04,13,10,44,11.10
2020,04,13,10,45,11.20
2020,04,13,10,46,11.20
2020,04,13,10,47,11.20
2020,04,13,10,48,11.20
2020,04,13,10,49,11.30
2020,04,13,10,50,11.30
2020,04,13,10,51,11.30
2020,04,13,10,52,11.30
2020,04,13,10,53,11.20
2020,04,13,10,54,11.20
2020,04,13,10,55,11.30
2020,04,13,10,56,11.30
2020,04,13,10,57,11.40
2020,04,13,10,58,11.30
2020,04,13,10,59,11.30
2020,04,13,11,00,11.30
2020,04,13,11,01,11.40
2020,04,13,11,02,11.50
2020,04,13,11,03,11.60
2020,04,13,11,04,11.60
2020,04,13,11,05,11.60
2020,04,13,11,06,11.60
2020,04,13,11,07,11.60
2020,04,13,11,08,11.70
2020,04,13,11,09,11.70
2020,04,13,11,10,11.70
2020,04,13,11,11,11.70
2020,04,13,11,12,11.70
2020,04,13,11,13,11.70
2020,04,13,11,14,11.60
2020,04,13,11,15,11.60
2020,04,13,11,16,11.70
2020,04,13,11,17,11.80
2020,04,13,11,18,11.80
2020,04,13,11,19,11.90
2020,04,13,11,20,11.90
2020,04,13,11,21,11.90
2020,04,13,11,22,11.90
2020,04,13,11,23,11.90
2020,04,13,11,24,11.80
2020,04,13,11,25,11.80
2020,04,13,11,26,11.80
2020,04,13,11,27,11.70
2020,04,13,11,28,11.70
2020,04,13,11,29,11.80
2020,04,13,11,30,11.80
2020,04,13,11,31,11.90
2020,04,13,11,32,11.90
2020,04,13,11,33,12.00
2020,04,13,11,34,12.00
2020,04,13,11,35,12.10
2020,04,13,11,36,12.10
2020,04,13,11,37,12.10
2020,04,13,11,38,12.10
2020,04,13,11,39,12.20
2020,04,13,11,40,12.20
2020,04,13,11,41,12.20
2020,04,13,11,42,12.20
2020,04,13,11,43,12.30
2020,04,13,11,44,12.30
2020,04,13,11,45,12.30
2020,04,13,11,46,12.20
2020,04,13,11,47,12.20
2020,04,13,11,48,12.20
2020,04,13,11,49,12.20
2020,04,13,11,50,12.20
2020,04,13,11,51,12.10
2020,04,13,11,52,12.10
2020,04,13,11,53,12.20
2020,04,13,11,54,12.20
2020,04,13,11,55,12.20
2020,04,13,11,56,12.10
2020,04,13,11,57,12.10
2020,04,13,11,58,12.00
2020,04,13,11,59,12.00
2020,04,13,12,00,12.10
2020,04,13,12,01,12.10
2020,04,13,12,02,12.10
2020,04,13,12,03,12.10
2020,04,13,12,04,12.10
2020,04,13,12,05,12.10
2020,04,13,12,06,12.00
2020,04,13,12,07,11.90
2020,04,13,12,08,11.90
2020,04,13,12,09,11.90
2020,04,13,12,10,12.00
2020,04,13,12,11,12.10
2020,04,13,12,12,12.20
2020,04,13,12,13,12.20
2020,04,13,12,14,12.10
2020,04,13,12,15,12.20
2020,04,13,12,16,12.20
2020,04,13,12,17,12.30
2020,04,13,12,18,12.40
2020,04,13,12,19,12.50
2020,04,13,12,20,12.40
2020,04,13,12,21,12.40
2020,04,13,12,22,12.40
2020,04,13,12,23,12.40
2020,04,13,12,24,12.50
2020,04,13,12,25,12.60
2020,04,13,12,26,12.70
2020,04,13,12,27,12.80
2020,04,13,12,28,12.90
2020,04,13,12,29,12.90
2020,04,13,12,30,12.80
2020,04,13,12,31,12.80
2020,04,13,12,32,12.80
2020,04,13,12,33,12.80
2020,04,13,12,34,12.80
2020,04,13,12,35,12.80
2020,04,13,12,36,12.70
2020,04,13,12,37,12.70
2020,04,13,12,38,12.70
2020,04,13,12,39,12.70
2020,04,13,12,40,12.70
2020,04,13,12,41,12.60
2020,04,13,12,42,12.50
2020,04,13,12,43,12.50
2020,04,13,12,44,12.40
2020,04,13,12,45,12.50
2020,04,13,12,46,12.70
2020,04,13,12,47,12.70
2020,04,13,12,48,12.80
2020,04,13,12,49,12.80
2020,04,13,12,50,12.80
2020,04,13,12,51,12.80
2020,04,13,12,52,12.80
2020,04,13,12,53,12.80
2020,04,13,12,54,12.80
2020,04,13,12,55,12.80
2020,04,13,12,56,12.80
2020,04,13,12,57,12.80
2020,04,13,12,58,12.80
2020,04,13,12,59,12.70
2020,04,13,13,00,12.60
2020,04,13,13,01,12.50
2020,04,13,13,02,12.50
2020,04,13,13,03,12.40
2020,04,13,13,04,12.40
2020,04,13,13,05,12.40
2020,04,13,13,06,12.30
2020,04,13,13,07,12.30
2020,04,13,13,08,12.30
2020,04,13,13,09,12.20
2020,04,13,13,10,12.10
2020,04,13,13,11,12.10
2020,04,13,13,12,12.10
2020,04,13,13,13,12.00
2020,04,13,13,14,12.10
2020,04,13,13,15,12.10
2020,04,13,13,16,12.10
2020,04,13,13,17,12.20
2020,04,13,13,18,12.30
2020,04,13,13,19,12.40
2020,04,13,13,20,12.50
2020,04,13,13,21,12.50
2020,04,13,13,22,12.50
2020,04,13,13,23,12.50
2020,04,13,13,24,12.50
2020,04,13,13,25,12.60
2020,04,13,13,26,12.60
2020,04,13,13,27,12.60
2020,04,13,13,28,12.70
2020,04,13,13,29,12.80
2020,04,13,13,30,12.90
2020,04,13,13,31,13.00
2020,04,13,13,32,13.20
2020,04,13,13,33,13.30
2020,04,13,13,34,13.20
2020,04,13,13,35,13.10
2020,04,13,13,36,12.80
2020,04,13,13,37,12.50
2020,04,13,13,38,12.30
2020,04,13,13,39,12.20
2020,04,13,13,40,12.10
2020,04,13,13,41,11.90
2020,04,13,13,42,11.90
2020,04,13,13,43,11.90
2020,04,13,13,44,12.00
2020,04,13,13,45,12.00
2020,04,13,13,46,12.00
2020,04,13,13,47,12.00
2020,04,13,13,48,12.00
2020,04,13,13,49,12.00
2020,04,13,13,50,12.00
2020,04,13,13,51,12.00
2020,04,13,13,52,12.00
2020,04,13,13,53,12.10
2020,04,13,13,54,12.00
2020,04,13,13,55,12.00
2020,04,13,13,56,12.10
2020,04,13,13,57,12.10
2020,04,13,13,58,12.10
2020,04,13,13,59,12.20
2020,04,13,14,00,12.30
2020,04,13,14,01,12.30
2020,04,13,14,02,12.30
2020,04,13,14,03,12.40
2020,04,13,14,04,12.60
2020,04,13,14,05,12.70
2020,04,13,14,06,12.70
2020,04,13,14,07,12.60
2020,04,13,14,08,12.40
2020,04,13,14,09,12.30
2020,04,13,14,10,12.30
2020,04,13,14,11,12.40
2020,04,13,14,12,12.50
2020,04,13,14,13,12.60
2020,04,13,14,14,12.70
2020,04,13,14,15,12.60
2020,04,13,14,16,12.50
2020,04,13,14,17,12.40
2020,04,13,14,18,12.30
2020,04,13,14,19,12.20
2020,04,13,14,20,12.10
2020,04,13,14,21,12.20
2020,04,13,14,22,12.10
2020,04,13,14,23,12.10
2020,04,13,14,24,12.00
2020,04,13,14,25,11.90
2020,04,13,14,26,12.00
2020,04,13,14,27,12.10
2020,04,13,14,28,12.20
2020,04,13,14,29,12.40
2020,04,13,14,30,12.50
2020,04,13,14,31,12.50
2020,04,13,14,32,12.50
2020,04,13,14,33,12.60
2020,04,13,14,34,12.60
2020,04,13,14,35,12.60
2020,04,13,14,36,12.60
2020,04,13,14,37,12.60
2020,04,13,14,38,12.60
2020,04,13,14,39,12.60
2020,04,13,14,40,12.60
2020,04,13,14,41,12.50
2020,04,13,14,42,12.40
2020,04,13,14,43,12.30
2020,04,13,14,44,12.20
2020,04,13,14,45,12.20
2020,04,13,14,46,12.30
2020,04,13,14,47,12.20
2020,04,13,14,48,12.10
2020,04,13,14,49,12.00
2020,04,13,14,50,11.90
2020,04,13,14,51,11.90
2020,04,13,14,52,11.90
2020,04,13,14,53,12.00
2020,04,13,14,54,12.10
2020,04,13,14,55,12.00
2020,04,13,14,56,12.00
2020,04,13,14,57,12.00
2020,04,13,14,58,12.10
2020,04,13,14,59,12.10
2020,04,13,15,00,12.10
2020,04,13,15,01,12.00
2020,04,13,15,02,12.00
2020,04,13,15,03,11.90
2020,04,13,15,04,11.80
2020,04,13,15,05,11.70
2020,04,13,15,06,11.60
2020,04,13,15,07,11.60
2020,04,13,15,08,11.60
2020,04,13,15,09,11.60
2020,04,13,15,10,11.60
2020,04,13,15,11,11.60
2020,04,13,15,12,11.60
2020,04,13,15,13,11.60
2020,04,13,15,14,11.70
2020,04,13,15,15,11.70
2020,04,13,15,16,11.50
2020,04,13,15,17,11.40
2020,04,13,15,18,11.40
2020,04,13,15,19,11.50
2020,04,13,15,20,11.60
2020,04,13,15,21,11.70
2020,04,13,15,22,11.70
2020,04,13,15,23,11.80
2020,04,13,15,24,11.80
2020,04,13,15,25,11.80
2020,04,13,15,26,11.80
2020,04,13,15,27,11.80
2020,04,13,15,28,11.80
2020,04,13,15,29,11.80
2020,04,13,15,30,11.90
2020,04,13,15,31,12.00
2020,04,13,15,32,12.00
2020,04,13,15,33,12.00
2020,04,13,15,34,12.00
2020,04,13,15,35,12.10
2020,04,13,15,36,12.00
2020,04,13,15,37,11.90
2020,04,13,15,38,11.90
2020,04,13,15,39,11.80
2020,04,13,15,40,11.80
2020,04,13,15,41,11.70
2020,04,13,15,42,11.80
2020,04,13,15,43,11.80
2020,04,13,15,44,11.90
2020,04,13,15,45,11.90
2020,04,13,15,46,11.80
2020,04,13,15,47,11.80
2020,04,13,15,48,11.70
2020,04,13,15,49,11.70
2020,04,13,15,50,11.80
2020,04,13,15,51,11.80
2020,04,13,15,52,11.80
2020,04,13,15,53,11.80
2020,04,13,15,54,11.80
2020,04,13,15,55,11.70
2020,04,13,15,56,11.70
2020,04,13,15,57,11.80
2020,04,13,15,58,11.80
2020,04,13,15,59,11.90
2020,04,13,16,00,11.90
2020,04,13,16,01,12.00
2020,04,13,16,02,12.00
2020,04,13,16,03,12.10
2020,04,13,16,04,12.20
2020,04,13,16,05,12.20
2020,04,13,16,06,12.30
2020,04,13,16,07,12.30
2020,04,13,16,08,12.30
2020,04,13,16,09,12.40
2020,04,13,16,10,12.60
2020,04,13,16,11,12.60
2020,04,13,16,12,12.60
2020,04,13,16,13,12.60
2020,04,13,16,14,12.60
2020,04,13,16,15,12.60
2020,04,13,16,16,12.60
2020,04,13,16,17,12.70
2020,04,13,16,18,12.70
2020,04,13,16,19,12.70
2020,04,13,16,20,12.70
2020,04,13,16,21,12.80
2020,04,13,16,22,12.80
2020,04,13,16,23,12.80
2020,04,13,16,24,12.90
2020,04,13,16,25,13.10
2020,04,13,16,26,13.20
2020,04,13,16,27,13.20
2020,04,13,16,28,13.30
2020,04,13,16,29,13.40
2020,04,13,16,30,13.40
2020,04,13,16,31,13.50
2020,04,13,16,32,13.50
2020,04,13,16,33,13.50
2020,04,13,16,34,13.40
2020,04,13,16,35,13.30
2020,04,13,16,36,13.30
2020,04,13,16,37,13.30
2020,04,13,16,38,13.30
2020,04,13,16,39,13.30
2020,04,13,16,40,13.30
2020,04,13,16,41,13.20
2020,04,13,16,42,13.00
2020,04,13,16,43,12.90
2020,04,13,16,44,12.80
2020,04,13,16,45,12.80
2020,04,13,16,46,12.80
2020,04,13,16,47,12.70
2020,04,13,16,48,12.60
2020,04,13,16,49,12.50
2020,04,13,16,50,12.40
2020,04,13,16,51,12.30
2020,04,13,16,52,12.20
2020,04,13,16,53,12.10
2020,04,13,16,54,12.10
2020,04,13,16,55,12.00
2020,04,13,16,56,11.80
2020,04,13,16,57,11.70
2020,04,13,16,58,11.70
2020,04,13,16,59,11.60
2020,04,13,17,00,11.50
2020,04,13,17,01,11.50
2020,04,13,17,02,11.40
2020,04,13,17,03,11.40
2020,04,13,17,04,11.40
2020,04,13,17,05,11.40
2020,04,13,17,06,11.40
2020,04,13,17,07,11.40
2020,04,13,17,08,11.50
2020,04,13,17,09,11.50
2020,04,13,17,10,11.60
2020,04,13,17,11,11.70
2020,04,13,17,12,11.70
2020,04,13,17,13,11.90
2020,04,13,17,14,12.00
2020,04,13,17,15,12.10
2020,04,13,17,16,12.20
2020,04,13,17,17,12.20
2020,04,13,17,18,12.30
2020,04,13,17,19,12.20
2020,04,13,17,20,12.30
2020,04,13,17,21,12.30
2020,04,13,17,22,12.30
2020,04,13,17,23,12.30
2020,04,13,17,24,12.40
2020,04,13,17,25,12.30
2020,04,13,17,26,12.30
2020,04,13,17,27,12.30
2020,04,13,17,28,12.30
2020,04,13,17,29,12.40
2020,04,13,17,30,12.40
2020,04,13,17,31,12.50
2020,04,13,17,32,12.50
2020,04,13,17,33,12.50
2020,04,13,17,34,12.40
2020,04,13,17,35,12.40
2020,04,13,17,36,12.30
2020,04,13,17,37,12.20
2020,04,13,17,38,12.20
2020,04,13,17,39,12.20
2020,04,13,17,40,12.20
2020,04,13,17,41,12.30
2020,04,13,17,42,12.30